Content
SEND FEEDBACK

Daily
Averages
Monthly
Summary
France

AVIGNON, FRANCE


Home > Europe > France
Elevation: 187 feet     Latitude: 44 00N     Longitude: 004 45E

WEATHER
 
SELECT A DAY
Number of Records: 163,927;   Date Range: 5/17/04 - 4/15/14
 
SHARE

PRINT THIS DATA

[ ← Previous Day ]
WEATHER ALMANAC - MARCH 6, 2013
[ Next Day → ]
[ °C ]   °F
Weather ElementAverageHighLow
Temperature51.5 °F55.4 °F (12:30 pm)48.2 °F (10:30 pm)
Dewpoint47 °F48.2 °F (8:00 am)44.6 °F (2:00 am)
Humidity85 %100 % (10:30 pm)67 % (1:00 pm)
Barometer29.49 in29.62 in (12:30 am)29.44 in (12:30 pm)
Wind Speed7.6 mph17.3 mph (3:30 am)
Wind Gust32.2 mph (2:00 am)
Weather ElementAverage
Visibility5.9 mi
Wind DirectionSSE (161.1 °)

Weather ElementTotal
Precipitation---
Heating Degree Days13.2 (Base 65)
Growing Degree Days1.8 (Base 50)
Averaged from 46 records on March 6, 2013
WEATHER CONDITIONS BREAKOUT
WIND DIRECTION BREAKOUT
WEATHER BY HOUR - MARCH 6, 2013
[ °C ]   °F
Local TimeTemperatureDewpointHumidityBarometerVisibilityWind DirectionWind SpeedGust SpeedPrecipitationEventsConditions
12:30 AM51.8 °F46.4 °F82 %29.62 in6.2 miESE (110°)10.4 mphRainLight Rain
1:00 AM51.8 °F46.4 °F82 %29.59 in6.2 miESE (110°)13.8 mphRainLight Rain
1:30 AM51.8 °F46.4 °F82 %29.59 in6.2 miESE (110°)11.5 mphRainLight Rain
2:00 AM51.8 °F44.6 °F76 %29.56 in6.2 miESE (110°)15.0 mph32.2 mphRainLight Rain
2:30 AM51.8 °F44.6 °F76 %29.56 in6.2 miESE (110°)16.1 mphRainLight Rain
3:00 AM51.8 °F44.6 °F76 %29.53 in6.2 miESE (110°)16.1 mph28.8 mphRainLight Rain
3:30 AM51.8 °F44.6 °F76 %29.53 in6.2 miESE (120°)17.3 mph29.9 mphRainLight Rain
4:00 AM51.8 °F44.6 °F76 %29.50 in6.2 miESE (110°)9.2 mphRainLight Rain
4:30 AM51.8 °F44.6 °F76 %29.50 in6.2 miEast (100°)11.5 mphRainLight Rain
5:00 AM51.8 °F44.6 °F76 %29.50 in6.2 miEast (80°)11.5 mphRainLight Rain
5:30 AM51.8 °F44.6 °F76 %29.50 in6.2 miEast (80°)9.2 mphRainLight Rain
6:00 AM51.8 °F44.6 °F76 %29.50 in6.2 miENE (60°)8.1 mphRainLight Rain
6:30 AM51.8 °F46.4 °F82 %29.50 in6.2 miENE (70°)5.8 mphRainLight Rain
7:00 AM51.8 °F46.4 °F82 %29.47 in6.2 miENE (70°)6.9 mphRainRain
7:30 AM50.0 °F46.4 °F87 %29.47 in6.2 miNorth (350°)5.8 mphRainLight Rain
8:00 AM50.0 °F48.2 °F94 %29.47 in6.2 miNorth (360°)3.5 mphRainLight Rain
8:30 AM50.0 °F48.2 °F94 %29.47 in6.2 miNNW (340°)3.5 mphRainLight Rain
9:00 AM50.0 °F48.2 °F94 %29.47 in6.2 miNorth (350°)4.6 mphRainLight Rain
9:30 AM50.0 °F48.2 °F94 %29.47 in6.2 miNNW (340°)3.5 mphRainLight Rain
10:00 AM51.8 °F46.4 °F82 %29.47 in6.2 miEast (80°)6.9 mphRainLight Rain
10:30 AM50.0 °F48.2 °F94 %29.47 in5.6 miNE (40°)5.8 mphRainLight Rain
11:00 AM53.6 °F46.4 °F77 %29.47 in6.2 miENE (70°)5.8 mphRainLight Rain
11:30 AM53.6 °F46.4 °F77 %29.47 in6.2 miENE (60°)4.6 mphOvercast
12:00 PM53.6 °F48.2 °F82 %29.47 in6.2 miVariable4.6 mphRainLight Rain
12:30 PM55.4 °F46.4 °F72 %29.44 in6.2 miENE (70°)4.6 mphRainLight Rain
1:00 PM55.4 °F44.6 °F67 %29.44 in6.2 miENE (60°)4.6 mphOvercast
1:30 PM53.6 °F48.2 °F82 %29.44 in6.2 miNNE (20°)5.8 mphOvercast
2:00 PM53.6 °F48.2 °F82 %29.44 in6.2 miNNE (30°)5.8 mphOvercast
2:30 PM53.6 °F48.2 °F82 %29.44 in6.2 miNorth (10°)8.1 mphOvercast
3:00 PM51.8 °F48.2 °F88 %29.44 in6.2 miNNE (20°)4.6 mphOvercast
3:30 PM51.8 °F48.2 °F88 %29.44 in6.2 miNorth (360°)6.9 mphOvercast
4:00 PM51.8 °F48.2 °F88 %29.44 in6.2 miNorth (360°)9.2 mphOvercast
4:30 PM51.8 °F48.2 °F88 %29.44 in6.2 miNorth (350°)6.9 mphOvercast
5:00 PM50.0 °F48.2 °F94 %29.44 in6.2 miNorth (360°)10.4 mphOvercast
5:30 PM50.0 °F48.2 °F94 %29.47 in6.2 miVariable5.8 mphOvercast
6:00 PM55.4 °F46.4 °F72 %29.44 in6.2 miVariable11.5 mph24.2 mphRainLight Rain
6:30 PM51.8 °F48.2 °F88 %29.44 in6.2 miVariable3.5 mphRainLight Rain
7:00 PM50.0 °F48.2 °F94 %29.47 in4.3 miNorth (350°)5.8 mphRainRain
7:30 PM50.0 °F48.2 °F94 %29.50 in2.8 miNorth (10°)8.1 mphRainRain
8:00 PM50.0 °F48.2 °F94 %29.50 in3.1 miNorth (10°)4.6 mphRainLight Rain
8:30 PM50.0 °F48.2 °F94 %29.50 inNW (320°)4.6 mphRainRain
9:00 PM50.0 °F48.2 °F94 %29.50 inNNW (340°)5.8 mphRainRain
9:30 PM50.0 °F48.2 °F94 %29.50 in3.1 miNorth (350°)5.8 mphRainRain
10:00 PM50.0 °F48.2 °F94 %29.50 inNorth (360°)6.9 mphRainLight Rain
10:30 PM48.2 °F48.2 °F100 %29.50 inNNW (340°)4.6 mphRainLight Rain
11:30 PM48.2 °F48.2 °F100 %29.50 inNorth (350°)4.6 mphRainLight Rain
Hourly data recorded from LFMV, located 10.16 miles away from Avignon, France







STORIES FROM OUR PARTNERS